Location: Newark
(35.2672°N, 80.7344°W)
Time: 04:48:57
(UTC+00:00)

Tiros 1 - Pass Details

Date: 23 January 2020
Orbit: 630 x 664 km, 48.4° (Epoch: 16 February)

Event Time Altitude Azimuth Distance (km) Brightness Sun altitude
Rises 16:35:52 0° 190° (S) 2,911 11.3 33.5°
Reaches altitude 10° 16:38:50 10° 171° (S) 2,013 11.1 33.7°
Maximum altitude 16:41:52 17° 130° (SE) 1,594 10.2 33.9°
Drops below altitude 10° 16:44:55 10° 89° (E) 2,033 10.0 34.0°
Sets 16:47:56 0° 69° (ENE) 2,954 10.5 34.2°
